Regional Weather Roundup
Issued by NWS

Home | Current Version | Previous Version | Text Only | Print | Product List | Glossary On
Versions: 1 2 3 4 5 6 7 8 9 10 11 12 13 14 15 16 17 18 19 20 21 22 23 24 25 26 27
000
ASUS45 KSLC 260410
RWRUT

UTAH REGIONAL WEATHER ROUNDUP
NATIONAL WEATHER SERVICE SALT LAKE CITY UT
1000 PM MDT MON JUL 25 2016

UTZ001>011-023>025-260500-

NORTHERN UTAH

CITY           SKY/WX    TMP DP  RH WIND       PRES   REMARKS
BRIGHAM CITY     N/A     78  42  27 SE3       30.01R
HILL AFB       CLEAR     81  32  17 E10       30.05R
LOGAN          CLEAR     77  43  29 E7        30.03R
OGDEN          CLEAR     83  39  21 CALM      30.02R
PROVO AIRPORT  PTCLDY    79  46  31 CALM      30.05R
SALT LAKE CITY PTCLDY    87  39  18 S8        29.99R
VERNAL         PTCLDY    74  41  30 VRB5      30.14R
WENDOVER       PTCLDY    84  30  14 NW3       30.00R
HEBER CITY     CLEAR     73  37  27 CALM      30.16R

$$

UTZ012>022-026-027-260500-

SOUTHERN/CENTRAL UTAH

CITY           SKY/WX    TMP DP  RH WIND       PRES   REMARKS
BLANDING       CLOUDY    80  41  25 N15G22    30.27R
BRYCE CANYON   MOCLDY    69  38  32 SE8       30.38R
CEDAR CITY     PTCLDY    84  38  19 SE13      30.15R
DELTA          MOCLDY    90  28  11 S12G24    30.05R
MILFORD        NOT AVBL
MOAB/CYNLANDS  MOCLDY    84  40  21 E3        30.07R
PRICE          CLOUDY    78  32  18 E6        30.19R
ST GEORGE      CLEAR     99  43  14 S9        29.92R HX  94

$$

REGIONAL REPORTS     COLORADO/ARIZONA

CITY           SKY/WX    TMP DP  RH WIND       PRES   REMARKS
CRAIG, CO      CLOUDY    76  33  21 SE5       30.24R
GRAND JUNCTION CLOUDY    85  40  20 N8        30.15R
RIFLE          CLEAR     81  37  20 N6        30.17R
MONTROSE       PTCLDY    76  45  33 S9        30.23R
CORTEZ         CLOUDY    78  47  33 CALM      30.23R
PAGE, AZ       CLOUDY    93  40  15 N9        30.07R
GRAND CANYON   CLOUDY    69  49  48 CALM      30.31F
KINGMAN        CLEAR     84  56  38 SE16      30.01R
FLAGSTAFF      CLOUDY    58  55  90 CALM      30.34S

$$

REGIONAL REPORTS    NEVADA/IDAHO/WYOMING

CITY           SKY/WX    TMP DP  RH WIND       PRES   REMARKS
LAS VEGAS, NV  PTCLDY   103  36  10 S7        29.79R HX  97
ELY            CLEAR     77  20  12 CALM      30.16R
ELKO           CLEAR     77  17  10 CALM      30.08R
POCATELLO, ID  CLEAR     75  25  15 S10       30.05R
BURLEY         CLEAR     68  50  52 S5        30.01R
EVANSTON, WY   CLEAR     71  30  21 S9        30.28R
ROCK SPRINGS   CLOUDY    72  32  23 S9        30.25R
KEMMERER         N/A    N/A N/A N/A NW7       30.29R

$$




USA.gov is the U.S. government's official web portal to all federal, state and local government web resources and services.